TimeEDT,TemperatureF,Dew PointF,Humidity,Sea Level PressureIn,VisibilityMPH,Wind Direction,Wind SpeedMPH,Gust SpeedMPH,PrecipitationIn,Events,Conditions,WindDirDegrees,DateUTC
12:55 AM,42.1,35.1,76,29.97,10.0,East,3.5,-,N/A,,Overcast,90,2011-10-26 04:55:00
1:00 AM,-9999,-9999,N/A,-9999,-9999.0,North,-9999.0,-,N/A,,Unknown,0,2011-10-26 05:00:00
1:55 AM,41.0,36.0,82,29.98,10.0,Calm,Calm,-,N/A,,Overcast,0,2011-10-26 05:55:00
2:55 AM,41.0,36.0,82,29.98,10.0,East,3.5,-,N/A,,Overcast,80,2011-10-26 06:55:00
3:55 AM,41.0,34.0,76,29.96,10.0,ENE,5.8,-,N/A,,Overcast,70,2011-10-26 07:55:00
4:55 AM,41.0,33.1,73,29.96,10.0,NE,3.5,-,N/A,,Overcast,50,2011-10-26 08:55:00
5:55 AM,41.0,32.0,70,29.97,10.0,NE,4.6,-,N/A,,Overcast,50,2011-10-26 09:55:00
6:55 AM,41.0,30.9,67,29.97,10.0,ENE,4.6,-,N/A,,Overcast,70,2011-10-26 10:55:00
7:55 AM,41.0,32.0,70,29.97,10.0,ENE,6.9,-,N/A,,Overcast,60,2011-10-26 11:55:00
8:55 AM,41.0,30.9,67,29.99,10.0,Variable,4.6,-,N/A,,Overcast,0,2011-10-26 12:55:00
9:00 AM,-9999,-9999,N/A,-9999,-9999.0,North,-9999.0,-,N/A,,Unknown,0,2011-10-26 13:00:00
9:55 AM,41.0,32.0,70,29.99,10.0,ENE,4.6,-,N/A,,Overcast,60,2011-10-26 13:55:00
10:55 AM,41.0,32.0,70,30.00,10.0,ENE,4.6,-,N/A,,Overcast,60,2011-10-26 14:55:00
11:55 AM,44.1,33.1,65,29.99,10.0,Variable,5.8,-,N/A,,Overcast,0,2011-10-26 15:55:00
12:55 PM,44.1,32.0,63,29.98,10.0,ESE,5.8,-,N/A,,Overcast,120,2011-10-26 16:55:00
1:55 PM,45.0,30.9,58,29.99,10.0,Calm,Calm,-,N/A,,Overcast,0,2011-10-26 17:55:00
2:55 PM,45.0,30.0,56,29.98,10.0,Calm,Calm,-,N/A,,Overcast,0,2011-10-26 18:55:00
3:55 PM,46.0,28.9,51,29.96,10.0,Calm,Calm,-,N/A,,Mostly Cloudy,0,2011-10-26 19:55:00
4:55 PM,46.9,30.9,54,29.95,10.0,WNW,4.6,-,N/A,,Overcast,300,2011-10-26 20:55:00
5:55 PM,46.0,33.1,61,29.95,10.0,WSW,4.6,-,N/A,,Overcast,240,2011-10-26 21:55:00
6:55 PM,43.0,30.9,62,29.96,10.0,WNW,5.8,-,N/A,,Mostly Cloudy,300,2011-10-26 22:55:00
7:55 PM,42.1,30.9,65,29.96,8.0,NW,3.5,-,N/A,,Partly Cloudy,320,2011-10-26 23:55:00
8:55 PM,39.9,30.9,70,29.96,9.0,Calm,Calm,-,N/A,,Clear,0,2011-10-27 00:55:00
9:55 PM,37.0,30.9,79,29.96,10.0,NNE,3.5,-,N/A,,Clear,20,2011-10-27 01:55:00
10:00 PM,-9999,-9999,N/A,-9999,-9999.0,North,-9999.0,-,N/A,,Unknown,0,2011-10-27 02:00:00
10:55 PM,39.0,30.9,73,29.96,10.0,NE,3.5,-,N/A,,Clear,40,2011-10-27 02:55:00
11:55 PM,34.0,28.9,82,29.96,10.0,NNE,3.5,-,N/A,,Clear,20,2011-10-27 03:55:00